sat.trackr.live / text

‹ back to catalog

STARLINK-34086

NORAD 65734 · 2025-216A

PAYLOAD ACTIVE UNKNOWN

§ Identity

Operator
Country
US
Launch date
2025-09-25
Launch site
AFETR
Launch vehicle
Mass (kg)
RCS (m²)

Purposes: comms

External: N2YO · Heavens-Above · Gunter

§ Orbital elements

Epoch: 2026-09-20T09:25:29.976384Z

Period
93.85 min
Inclination
53.1580°
Eccentricity
0.0001281
Mean motion
15.34403292 rev/d
Perigee alt
461.8 km
Apogee alt
463.6 km
Semi-major
6,840.8 km
B*
3.8329e-4
RAAN
146.3859°
Arg perigee
82.8978°
Mean anomaly
277.2170°
Rev number
5,640

§ Raw data

STARLINK-340861 65734U 25216A   26263.39270806  .00012597  00000+0  38329-3 0  99962 65734  53.1580 146.3859 0001281  82.8978 277.2170 15.34403292 56403

JSON: /api/v1/satellites/65734 · /tle

For live sub-satellite position, see the globe view (requires WebGL).

§ Visibility from observer

Set your observer location to see the next 7 days of passes ≥ 10°. The values pass through the URL so the page stays shareable.

No JS? Fill the form by hand. The geolocation button needs JavaScript.